Flag for Botswana Weather past 2 weeks in Francistown, Botswana

Now
68 °F

Clear.


Feels Like: 68 °F
Forecast: 58 / 82 °F
Wind: 3 mph from North

Location: Francistown Airport


UV Index: 7 (High)

Visibility: 10 mi


Pressure: 30.21 "Hg

Humidity: 64%

Dew point: 55 °F

Location of FrancistownLocation

Historic Weather in Francistown

°F

Francistown temperature yesterday

Maximum temperature yesterday: 79 °F (at 2:00 PM)
Minimum temperature yesterday: 46 °F (at 5:00 AM)
Average temperature yesterday: 63 °F

Past Weeks' High & Low Weather Summary

 TemperatureHumidityPressure
High82 °F (Apr 19, 3:00 PM)100% (Apr 12, 7:00 AM)30.33 "Hg (Apr 12, 7:00 AM)
Low46 °F (Apr 18, 5:00 AM)30% (Apr 19, 3:00 PM)30.04 "Hg (Apr 15, 3:00 PM)
Average65 °F77%30.21 "Hg
* Reported Apr 4 7:00 PM — Apr 19 7:00 PM, Francistown, Weather by CustomWeather, © 2014

Note: Actual official high and low records may vary slightly from our data, if they occured in-between our weather recording intervals... More about our weather records

Advertising

Historic Weather Conditions — Data for Previous 24 hours

 ConditionsComfort  
Time TempWeatherWind HumidityBarometerVisibility
7:00 PM
Apr 19
68 °FClear.3 mph64%30.21 "Hg10 mi
6:00 PM79 °FClear.6 mph37%30.21 "Hg10 mi
5:00 PM81 °FClear.10 mph37%30.21 "Hg10 mi
4:00 PM82 °FSunny.9 mph30%30.18 "Hg10 mi
3:00 PM82 °FPassing clouds.9 mph30%30.18 "HgN/A
2:00 PM81 °FSunny.9 mph37%30.21 "Hg10 mi
1:00 PM81 °FPassing clouds.13 mph34%30.24 "HgN/A
12:00 PM79 °FPassing clouds.14 mph39%30.27 "HgN/A
11:00 AM79 °FPassing clouds.14 mph42%30.30 "HgN/A
10:00 AM73 °FPassing clouds.9 mph53%30.30 "HgN/A
9:00 AM66 °FPassing clouds.6 mph68%30.30 "HgN/A
8:00 AM57 °FPassing clouds.3 mph88%30.27 "HgN/A
7:00 AM50 °FSunny.3 mph82%30.27 "Hg10 mi
6:00 AM48 °FSunny.1 mph87%30.24 "Hg10 mi
5:00 AM46 °FClear.2 mph100%30.21 "Hg10 mi
4:00 AM50 °FClear.2 mph94%30.21 "Hg10 mi
3:00 AM48 °FClear.1 mph87%30.21 "Hg10 mi
2:00 AM48 °FClear.2 mph94%30.21 "Hg10 mi
1:00 AM52 °FClear.2 mph88%30.21 "Hg10 mi
12:00 AM55 °FClear.2 mph82%30.21 "Hg10 mi
11:00 PM
Apr 18
57 °FClear.5 mph77%30.21 "Hg10 mi
10:00 PM57 °FClear.5 mph77%30.21 "Hg10 mi
9:00 PM61 °FClear.5 mph77%30.21 "Hg10 mi
8:00 PM63 °FClear.3 mph77%30.18 "Hg10 mi
Weather by CustomWeather, © 2014

See weather overview